FW1957 Weather Reports


time (UTC)temp
C
wind
direction
speed
KPH
gust
KPH
rain 1hr
cm
rain 24hr
cm
rain mn
cm
humidity
%
barometer
mb
20260506164715 21 207 16.1 40.2 0.00 0.00 0.00 51 1003.1
20260506164207 21 174 16.1 27.4 0.00 0.00 0.00 50 1003.2
20260506163717 22 175 14.5 27.4 0.00 0.00 0.00 50 1003.2
20260506163216 22 196 14.5 37.0 0.00 0.00 0.00 50 1003.2
20260506162712 22 214 16.1 40.2 0.00 0.00 0.00 50 1003.1
20260506162232 22 182 20.9 41.8 0.00 0.00 0.00 49 1003.2
20260506160235 23 180 19.3 37.0 0.00 0.00 0.00 47 1003.2
20260506155707 23 232 17.7 37.0 0.00 0.00 0.00 47 1003.2
20260506155211 23 196 19.3 37.0 0.00 0.00 0.00 48 1003.3
20260506154209 23 180 16.1 30.6 0.00 0.00 0.00 48 1003.4
20260506153708 23 138 14.5 27.4 0.00 0.00 0.00 48 1003.5
20260506153214 23 188 14.5 41.8 0.00 0.00 0.00 48 1003.4
20260506152211 23 161 16.1 41.8 0.00 0.00 0.00 48 1003.4
20260506151714 23 161 19.3 38.6 0.00 0.00 0.00 48 1003.4
20260506151219 23 205 20.9 38.6 0.00 0.00 0.00 48 1003.5
20260506150714 23 168 19.3 41.8 0.00 0.00 0.00 48 1003.6
20260506145719 23 173 19.3 45.1 0.00 0.00 0.00 48 1003.6
20260506144710 23 199 20.9 48.3 0.00 0.00 0.00 48 1003.6
20260506144211 23 197 22.5 49.9 0.00 0.00 0.00 47 1003.6
20260506143210 24 196 29.0 49.9 0.00 0.00 0.00 46 1003.6
20260506142716 24 187 29.0 49.9 0.00 0.00 0.00 46 1003.6
20260506142209 24 186 24.1 43.5 0.00 0.00 0.00 45 1003.5
20260506141706 25 165 22.5 41.8 0.00 0.00 0.00 44 1003.5
20260506141207 24 194 20.9 41.8 0.00 0.00 0.00 44 1003.6
20260506140715 24 181 17.7 40.2 0.00 0.00 0.00 44 1003.5
20260506140217 24 215 17.7 40.2 0.00 0.00 0.00 41 1003.6
20260506135709 25 217 20.9 37.0 0.00 0.00 0.00 42 1003.5
20260506135219 25 195 20.9 37.0 0.00 0.00 0.00 42 1003.4
20260506133713 25 159 22.5 41.8 0.00 0.00 0.00 40 1003.4
20260506133220 26 177 20.9 45.1 0.00 0.00 0.00 40 1003.5
20260506132711 26 132 20.9 45.1 0.00 0.00 0.00 39 1003.5
20260506132210 26 197 19.3 45.1 0.00 0.00 0.00 40 1003.6
20260506131709 26 198 17.7 43.5 0.00 0.00 0.00 38 1003.7
20260506131214 26 198 19.3 45.1 0.00 0.00 0.00 39 1003.6
20260506130705 26 219 22.5 45.1 0.00 0.00 0.00 39 1003.7
20260506130217 26 200 20.9 40.2 0.00 0.00 0.00 39 1003.6
20260506125713 26 191 17.7 40.2 0.00 0.00 0.00 39 1003.7
20260506125210 26 188 22.5 43.5 0.00 0.00 0.00 39 1003.7
20260506123712 27 178 20.9 41.8 0.00 0.00 0.00 37 1003.8
20260506123217 26 184 22.5 45.1 0.00 0.00 0.00 37 1003.8
20260506122711 26 163 22.5 45.1 0.00 0.00 0.00 38 1003.8
20260506122215 25 221 24.1 45.1 0.00 0.00 0.00 39 1003.8
20260506121216 25 189 24.1 45.1 0.00 0.00 0.00 39 1004.0
20260506120708 25 168 24.1 45.1 0.00 0.00 0.00 40 1004.0
20260506120219 25 194 24.1 45.1 0.00 0.00 0.00 39 1003.9
20260506115707 25 169 24.1 43.5 0.00 0.00 0.00 38 1004.0
20260506115213 25 173 27.4 46.7 0.00 0.00 0.00 37 1004.0
20260506114706 26 159 27.4 46.7 0.00 0.00 0.00 37 1004.2
20260506114219 26 163 27.4 46.7 0.00 0.00 0.00 38 1004.1
20260506113712 26 157 27.4 46.7 0.00 0.00 0.00 38 1004.1
20260506113211 25 165 25.7 41.8 0.00 0.00 0.00 38 1004.3
20260506112708 25 173 22.5 40.2 0.00 0.00 0.00 38 1004.5
20260506112234 26 180 20.9 46.7 0.00 0.00 0.00 37 1004.5
20260506110709 25 192 24.1 40.2 0.00 0.00 0.00 37 1004.5
20260506110209 25 161 22.5 38.6 0.00 0.00 0.00 37 1004.7
20260506105713 25 169 19.3 43.5 0.00 0.00 0.00 37 1004.6
20260506105208 25 157 20.9 43.5 0.00 0.00 0.00 37 1004.7
20260506104707 25 178 22.5 43.5 0.00 0.00 0.00 38 1005.0
20260506104213 25 169 19.3 32.2 0.00 0.00 0.00 38 1004.9
20260506103705 25 168 17.7 41.8 0.00 0.00 0.00 38 1005.0
20260506103217 24 161 19.3 41.8 0.00 0.00 0.00 37 1005.2
20260506102712 24 207 20.9 41.8 0.00 0.00 0.00 38 1005.4
20260506102208 23 159 19.3 33.8 0.00 0.00 0.00 44 1005.3
20260506101711 23 159 19.3 33.8 0.00 0.00 0.00 45 1005.4
20260506101210 23 157 20.9 33.8 0.00 0.00 0.00 45 1005.6
20260506100714 23 130 19.3 41.8 0.00 0.00 0.00 45 1005.5
20260506100228 23 182 19.3 41.8 0.00 0.00 0.00 45 1005.7
20260506095715 23 149 20.9 49.9 0.00 0.00 0.00 46 1005.9
20260506095213 23 171 22.5 49.9 0.00 0.00 0.00 46 1005.8
20260506094712 23 99 22.5 49.9 0.00 0.00 0.00 46 1005.9
20260506094206 23 107 20.9 38.6 0.00 0.00 0.00 46 1005.9
20260506093710 23 180 22.5 38.6 0.00 0.00 0.00 46 1006.1
20260506093206 23 163 22.5 38.6 0.00 0.00 0.00 46 1006.2
20260506092215 23 161 22.5 33.8 0.00 0.00 0.00 46 1006.4
20260506091706 23 148 20.9 32.2 0.00 0.00 0.00 46 1006.5
20260506091212 23 116 19.3 35.4 0.00 0.00 0.00 48 1006.5
20260506090705 23 123 17.7 35.4 0.00 0.00 0.00 49 1006.5
20260506090214 23 109 17.7 27.4 0.00 0.00 0.00 51 1006.5
20260506085706 22 146 19.3 27.4 0.00 0.00 0.00 50 1006.5
20260506085211 22 122 17.7 27.4 0.00 0.00 0.00 50 1006.6
20260506084711 23 146 16.1 27.4 0.00 0.00 0.00 49 1006.7
20260506083716 23 154 14.5 24.1 0.00 0.00 0.00 50 1006.6
20260506083206 22 116 12.9 22.5 0.00 0.00 0.00 50 1006.6
20260506082706 22 136 12.9 24.1 0.00 0.00 0.00 50 1006.6
20260506082217 22 157 12.9 24.1 0.00 0.00 0.00 49 1006.6
20260506081212 22 184 11.3 19.3 0.00 0.00 0.00 48 1006.4
20260506080708 22 147 9.7 19.3 0.00 0.00 0.00 48 1006.4
20260506073219 21 225 8.0 16.1 0.00 0.00 0.00 53 1006.7
20260506072709 20 207 6.4 12.9 0.00 0.00 0.00 53 1006.7
20260506072218 20 178 4.8 12.9 0.00 0.00 0.00 53 1006.8
20260506071711 20 186 6.4 11.3 0.00 0.00 0.00 54 1006.8
20260506071207 20 219 4.8 11.3 0.00 0.00 0.00 54 1006.8
20260506070719 20 173 4.8 9.7 0.00 0.00 0.00 56 1006.9
20260506070205 19 248 4.8 9.7 0.00 0.00 0.00 56 1006.9
20260506062217 17 198 4.8 12.9 0.00 0.00 0.00 60 1007.1
20260506061719 17 215 4.8 12.9 0.00 0.00 0.00 61 1007.1
20260506061208 17 224 6.4 12.9 0.00 0.00 0.00 61 1007.1
20260506060718 17 261 8.0 12.9 0.00 0.00 0.00 62 1007.2
20260506060209 16 234 8.0 12.9 0.00 0.00 0.00 62 1007.2
20260506051214 15 254 6.4 12.9 0.00 0.00 0.00 70 1007.2
20260506050707 14 254 8.0 12.9 0.00 0.00 0.00 70 1007.1
20260506050207 14 236 9.7 12.9 0.00 0.00 0.00 70 1007.2
20260506044215 13 242 6.4 9.7 0.00 0.00 0.00 72 1007.2
20260506043715 13 244 6.4 9.7 0.00 0.00 0.00 73 1007.1
20260506043218 13 231 6.4 12.9 0.00 0.00 0.00 73 1007.0
20260506042713 13 246 6.4 12.9 0.00 0.00 0.00 73 1007.0
20260506042214 13 226 8.0 11.3 0.00 0.00 0.00 73 1007.0
20260506041717 12 232 8.0 11.3 0.00 0.00 0.00 73 1007.0
20260506040719 12 221 6.4 9.7 0.00 0.00 0.00 74 1006.9
20260506040215 12 227 6.4 9.7 0.00 0.00 0.00 74 1006.9
20260506035713 12 234 6.4 9.7 0.00 0.00 0.00 74 1006.9
20260506035211 12 222 6.4 11.3 0.00 0.00 0.00 74 1006.8
20260506034714 12 234 6.4 12.9 0.00 0.00 0.00 75 1006.8
20260506034213 12 234 8.0 12.9 0.00 0.00 0.00 75 1006.8
20260506033717 12 244 8.0 12.9 0.00 0.00 0.00 75 1006.7
20260506033210 12 249 8.0 12.9 0.00 0.00 0.00 75 1006.7
20260506032718 12 257 6.4 11.3 0.00 0.00 0.00 75 1006.6
20260506032206 12 227 6.4 11.3 0.00 0.00 0.00 75 1006.6
20260506031717 12 233 4.8 11.3 0.00 0.00 0.00 75 1006.5
20260506031215 12 226 4.8 8.0 0.00 0.00 0.00 75 1006.5
20260506030712 12 223 3.2 6.4 0.00 0.00 0.00 75 1006.5
20260506030214 12 257 4.8 6.4 0.00 0.00 0.00 75 1006.5
20260506025720 12 233 3.2 9.7 0.00 0.00 0.00 74 1006.5
20260506025214 12 230 4.8 9.7 0.00 0.00 0.00 74 1006.5
20260506024706 12 202 3.2 9.7 0.00 0.00 0.00 74 1006.5
20260506024214 12 258 3.2 8.0 0.00 0.00 0.00 74 1006.5
20260506023211 12 217 4.8 8.0 0.00 0.00 0.00 74 1006.5
20260506022206 12 259 3.2 8.0 0.00 0.00 0.00 73 1006.5
20260506021712 12 270 4.8 8.0 0.00 0.00 0.00 73 1006.5
20260506021212 12 246 6.4 8.0 0.00 0.00 0.00 73 1006.4
20260506020219 13 261 3.2 4.8 0.00 0.00 0.00 71 1006.2
20260506015708 13 266 3.2 4.8 0.00 0.00 0.00 71 1006.2
20260506015213 13 266 0.0 1.6 0.00 0.00 0.00 71 1006.1
20260506014720 13 32 0.0 1.6 0.00 0.00 0.00 70 1006.0
20260506014219 13 32 0.0 4.8 0.00 0.00 0.00 70 1005.9
20260506013715 13 32 0.0 4.8 0.00 0.00 0.00 70 1005.9
20260506013207 13 32 1.6 4.8 0.00 0.00 0.00 70 1005.9
20260506012215 13 55 3.2 4.8 0.00 0.00 0.00 69 1005.7
20260506011704 13 13 3.2 8.0 0.00 0.00 0.00 69 1005.8
20260506011215 14 355 3.2 9.7 0.00 0.00 0.00 69 1005.8
20260506010718 14 9 4.8 9.7 0.00 0.00 0.00 68 1005.8
20260506010213 14 346 4.8 9.7 0.00 0.00 0.00 68 1005.8
20260506005715 14 338 3.2 8.0 0.00 0.00 0.00 68 1005.7
20260506005211 14 343 3.2 8.0 0.00 0.00 0.00 67 1005.6
20260506004706 14 20 3.2 8.0 0.00 0.00 0.00 66 1005.4
20260506004213 15 19 1.6 6.4 0.00 0.00 0.00 66 1005.4
20260506003712 15 275 3.2 6.4 0.00 0.00 0.00 65 1005.3
20260506003218 15 311 4.8 8.0 0.00 0.00 0.00 65 1005.2
20260506002717 15 311 4.8 8.0 0.00 0.00 0.00 65 1005.1
20260506001712 15 234 4.8 6.4 0.00 0.00 0.00 65 1005.1
20260506001219 15 225 4.8 6.4 0.00 0.00 0.00 65 1005.0
20260506000717 15 234 4.8 9.7 0.00 0.00 0.00 64 1005.0
20260505235716 15 228 4.8 9.7 0.00 0.00 0.00 64 1004.9
20260505235216 15 227 6.4 9.7 0.00 0.00 0.00 64 1004.8
20260505234712 15 232 4.8 9.7 0.00 0.00 0.00 64 1004.8
20260505234218 15 188 4.8 9.7 0.00 0.00 0.00 65 1004.8
20260505233743 15 205 4.8 8.0 0.00 0.00 0.00 65 1004.7
20260505233212 15 194 3.2 8.0 0.00 0.00 0.00 65 1004.7
20260505232718 15 167 3.2 8.0 0.00 0.00 0.00 65 1004.7
20260505232216 15 190 3.2 8.0 0.00 0.00 0.00 65 1004.7
20260505231710 15 179 3.2 6.4 0.00 0.00 0.00 65 1004.7
20260505231211 15 170 3.2 11.3 0.00 0.00 0.00 64 1004.6
20260505230715 15 202 4.8 11.3 0.00 0.00 0.00 64 1004.6
20260505230210 15 196 6.4 11.3 0.00 0.00 0.00 64 1004.5
20260505225218 15 185 4.8 11.3 0.00 0.00 0.00 63 1004.5
20260505224712 15 202 4.8 11.3 0.00 0.00 0.00 63 1004.5
20260505224210 15 207 6.4 11.3 0.00 0.00 0.00 63 1004.4
20260505223705 15 178 6.4 9.7 0.00 0.00 0.00 63 1004.4
20260505223205 15 173 6.4 14.5 0.00 0.00 0.00 63 1004.4
20260505222710 15 179 6.4 14.5 0.00 0.00 0.00 62 1004.3
20260505221719 16 178 6.4 14.5 0.00 0.00 0.00 62 1004.1
20260505221209 16 198 6.4 14.5 0.00 0.00 0.00 61 1004.1
20260505220714 16 211 6.4 14.5 0.00 0.00 0.00 61 1004.0
20260505220211 16 169 4.8 14.5 0.00 0.00 0.00 60 1004.1
20260505215714 16 192 6.4 17.7 0.00 0.00 0.00 60 1004.1
20260505215207 16 180 8.0 19.3 0.00 0.00 0.00 60 1004.0
20260505214720 16 216 9.7 19.3 0.00 0.00 0.00 60 1004.0
20260505214214 16 201 9.7 19.3 0.00 0.00 0.00 60 1004.0
20260505213713 16 198 8.0 16.1 0.00 0.00 0.00 60 1003.9
20260505213206 16 213 9.7 19.3 0.00 0.00 0.00 59 1003.8
20260505212719 16 222 9.7 20.9 0.00 0.00 0.00 59 1003.8
20260505212223 16 221 11.3 20.9 0.00 0.00 0.00 59 1003.8
20260505211705 17 215 11.3 22.5 0.00 0.00 0.00 58 1003.7
20260505210711 17 223 12.9 25.7 0.00 0.00 0.00 58 1003.6
20260505205718 17 211 14.5 27.4 0.00 0.00 0.00 58 1003.4
20260505205213 17 235 14.5 29.0 0.00 0.00 0.00 58 1003.2
20260505204713 17 220 14.5 30.6 0.00 0.00 0.00 57 1003.2
20260505203208 17 184 16.1 33.8 0.00 0.00 0.00 57 1003.0
20260505202709 17 169 16.1 33.8 0.00 0.00 0.00 57 1003.0
20260505202206 17 197 17.7 37.0 0.00 0.00 0.00 57 1002.9
20260505201709 17 178 17.7 37.0 0.00 0.00 0.00 57 1002.9
20260505201219 17 189 17.7 33.8 0.00 0.00 0.00 57 1002.9
20260505200705 17 217 16.1 32.2 0.00 0.00 0.00 56 1002.9
20260505200217 17 205 16.1 37.0 0.00 0.00 0.00 56 1002.9
20260505195705 18 207 17.7 37.0 0.00 0.00 0.00 56 1002.9
20260505195217 18 195 17.7 37.0 0.00 0.00 0.00 56 1002.9
20260505194713 18 209 16.1 35.4 0.00 0.00 0.00 55 1003.0
20260505194216 18 157 16.1 35.4 0.00 0.00 0.00 55 1002.9
20260505193719 18 223 17.7 35.4 0.00 0.00 0.00 55 1002.8
20260505192717 18 183 16.1 25.7 0.00 0.00 0.00 54 1002.7
20260505192208 18 154 16.1 33.8 0.00 0.00 0.00 54 1002.7
20260505191705 18 168 16.1 33.8 0.00 0.00 0.00 54 1002.7
20260505191214 18 202 14.5 33.8 0.00 0.00 0.00 54 1002.8
20260505190713 18 216 12.9 25.7 0.00 0.00 0.00 54 1002.8
20260505190214 18 192 14.5 29.0 0.00 0.00 0.00 54 1002.9
20260505185707 18 174 16.1 29.0 0.00 0.00 0.00 54 1002.9
20260505185213 18 208 14.5 25.7 0.00 0.00 0.00 53 1002.8
20260505184716 18 186 14.5 27.4 0.00 0.00 0.00 53 1002.9
20260505184219 18 207 14.5 27.4 0.00 0.00 0.00 53 1002.9
20260505183705 19 186 14.5 27.4 0.00 0.00 0.00 53 1002.9
20260505183216 19 214 14.5 25.7 0.00 0.00 0.00 52 1002.9
20260505182717 19 200 14.5 30.6 0.00 0.00 0.00 52 1002.9
20260505182205 19 219 16.1 30.6 0.00 0.00 0.00 52 1002.9
20260505181719 19 210 16.1 30.6 0.00 0.00 0.00 51 1002.8
20260505181216 19 189 16.1 30.6 0.00 0.00 0.00 51 1002.9
20260505180715 20 144 16.1 33.8 0.00 0.00 0.00 51 1002.9
20260505180211 20 227 16.1 35.4 0.00 0.00 0.00 51 1002.9
20260505175707 20 223 17.7 38.6 0.00 0.00 0.00 50 1002.9
20260505175212 20 184 19.3 38.6 0.00 0.00 0.00 50 1002.8
20260505174717 20 190 19.3 38.6 0.00 0.00 0.00 50 1002.8
20260505174207 20 167 19.3 35.4 0.00 0.00 0.00 49 1002.7
20260505173720 20 187 19.3 35.4 0.00 0.00 0.00 49 1002.8
20260505173212 20 167 19.3 40.2 0.00 0.00 0.00 49 1002.8
20260505172717 20 224 20.9 40.2 0.00 0.00 0.00 49 1002.8
20260505172217 20 165 19.3 37.0 0.00 0.00 0.00 48 1002.9
20260505171704 20 209 16.1 29.0 0.00 0.00 0.00 48 1002.9
20260505171206 21 169 16.1 33.8 0.00 0.00 0.00 47 1002.9
20260505170731 21 163 16.1 41.8 0.00 0.00 0.00 47 1003.0
20260505170218 21 198 19.3 41.8 0.00 0.00 0.00 47 1003.1
20260505165714 21 197 20.9 41.8 0.00 0.00 0.00 46 1003.1